Location: Sedan
(39.2354°N, 78.5718°W)
Time: 22:45:22
(UTC+00:00)

ISS - Pass Details

Date: 01 December 2021
Orbit: 413 x 422 km, 51.6° (Epoch: 25 January)

Event Time Altitude Azimuth Distance (km) Brightness Sun altitude
Rises 22:09:44 0° 308° (NW) 2,386 0.5 -4.0°
Reaches altitude 10° 22:13:39 10° 353° (N) 1,517 -1.1 -4.7°
Maximum altitude 22:14:11 10° 2° (N) 1,499 -1.2 -4.7°
Drops below altitude 10° 22:14:44 10° 11° (NNE) 1,515 -1.3 -4.8°
Enters shadow 22:17:03 - 43° (NE) 1,913 -1.0 -5.3°
